SDO

Last updated on Mon Sep 07 2026 00:02:57 GMT+0000 (Coordinated Universal Time)

1 36395U 10005A 26249.07256584 -.00000085 00000+0 00000+0 0 9994 2 36395 34.8171 85.1111 0001899 71.5152 113.0093 1.00274640 60879
UTC large
Height (km)
Speed (km/s)
/
Latitude / Longitude
Inclination (degrees)
Orbital Period (minutes)
Azimuth
Elevation
Range (km)
Doppler Factor

Next 0 passes for location: London (51.5072 / 0.1276)

No passes found over London.
SDO